This is the latest recevied weather packets stored in our database for station/object KB0Y. If no packets are shown the sender has not sent any weather packets the latest 10 day(s).
| Time | Temp. | Humidity | Pressure | Rain* | Wind** | Luminosity | Snow |
|---|---|---|---|---|---|---|---|
| 1777494840 | 33.33° C | 43% | 1014.5 hPa | 0 mm | - | 497 W/m² | - |
| 1777494537 | 33.89° C | 44% | 1014.9 hPa | 0 mm | - | 507 W/m² | - |
| 1777494235 | 33.89° C | 44% | 1014.5 hPa | 0 mm | - | 512 W/m² | - |
| 1777493931 | 33.89° C | 43% | 1015.2 hPa | 0 mm | - | 514 W/m² | - |
| 1777493630 | 33.33° C | 45% | 1014.9 hPa | 0 mm | - | 512 W/m² | - |
| 1777493327 | 33.33° C | 44% | 1015.2 hPa | 0 mm | - | 516 W/m² | - |
| 1777493023 | 33.33° C | 44% | 1015.6 hPa | 0 mm | - | 525 W/m² | - |
| 1777492720 | 33.33° C | 43% | 1015.6 hPa | 0 mm | - | 525 W/m² | - |
| 1777492419 | 32.78° C | 43% | 1015.9 hPa | 0 mm | - | 520 W/m² | - |
| 1777492117 | 32.78° C | 44% | 1015.9 hPa | 0 mm | - | 522 W/m² | - |
| 1777491814 | 32.78° C | 44% | 1015.6 hPa | 0 mm | - | 525 W/m² | - |
| 1777491511 | 32.78° C | 46% | 1016.2 hPa | 0 mm | - | 525 W/m² | - |
| 1777491208 | 32.78° C | 44% | 1016.2 hPa | 0 mm | - | 529 W/m² | - |
| 1777490904 | 32.22° C | 44% | 1015.9 hPa | 0 mm | - | 530 W/m² | - |
| 1777490600 | 32.22° C | 45% | 1016.2 hPa | 0 mm | - | 529 W/m² | - |
| 1777490296 | 32.22° C | 46% | 1016.2 hPa | 0 mm | - | 531 W/m² | - |
| 1777489994 | 32.22° C | 47% | 1016.2 hPa | 0 mm | - | 532 W/m² | - |
| 1777489692 | 31.67° C | 46% | 1016.6 hPa | 0 mm | - | 528 W/m² | - |
| 1777489388 | 31.67° C | 46% | 1016.6 hPa | 0 mm | - | 528 W/m² | - |
| 1777489085 | 31.67° C | 46% | 1016.9 hPa | 0 mm | - | 533 W/m² | - |
| 1777488782 | 31.67° C | 46% | 1016.9 hPa | 0 mm | - | 533 W/m² | - |
| 1777488480 | 31.67° C | 47% | 1016.6 hPa | 0 mm | - | 529 W/m² | - |
| 1777488177 | 31.67° C | 48% | 1016.9 hPa | 0 mm | - | 518 W/m² | - |
| 1777487875 | 31.67° C | 47% | 1016.9 hPa | 0 mm | - | 522 W/m² | - |
| 1777487573 | 31.67° C | 47% | 1016.9 hPa | 0 mm | - | 524 W/m² | - |
* Rain latest hour (hover to see other rain measurements)
** Current wind speed in m/s (hover to see current wind gust speed)